ADF AIRWAYS. MIAMI FLORIDA’S PREMIER FLIGHT TRAINING ACADEMY

Thank you for visiting ADF Airways. Located in Miami, Florida, ADF airways is a premier Flight Training school dedicated to helping those who want to learn how to fly. Whether you are a new student seeking a license to fly for fun, or an advanced pilot looking to get your ATP rating, we’re confident ADF Airways will exceed your expectations!

 

OVER 3 DECADES OF EXPERIENCE WITH A PERSONAL TOUCH

ADF Airways has been in the business of helping pilots since 1986. We take an individual approach to flight training, and can tailor your experience at whatever pace you choose. Our instructors have a combined experience of well over 40 years in the business, and we’re sure we will be able to help you live your dream. ADF Airways is :

  • An FAA-approved Part 141 Flight Academy (Part 61 training available)
  • Approved by the Department of Veterans Affairs (VA)
  • An experiecnced leader in helping students attatin a full range of ratings from Private Pilot to Airline Transport Pilot with Jet Transition training.
  • A strong partner that assists  foreign students to gain FAA ratings and student visas.
  • A quality centered organization that provides experienced Flight Instructors
  • A large provider of a wide range of single and multi-engine aircraft.

ADF Airways has been providing quality Flight instruction for over 3 decades. Established in 1986, we are located at the Kendall-Tamiami Executive Airport (TMB) in Miami, Florida. We have grown into an institution of more than 200 active students. ADF Airways is dedicated to giving each person the personal attention he or she deserves. Our experienced flight instructor staff truly enjoys teaching and giving their undivided attention to the wants and needs of each student. They here just to to help you succeed!

 

 

Facebook By Weblizar Powered By Weblizar

METARS

KTMB 011753Z 11007KT 10SM CLR 31/24 A3007 RMK AO2 SLP181 60000 T03110239 58003

KOPF 011753Z 17009KT 10SM FEW030 SCT050 BKN150 32/24 A3007 RMK AO2 LTG DSNT N AND SW SLP184 T03220239 10322 20278 58004

KFLL 011753Z VRB03KT 10SM CLR 31/24 A3006 RMK AO2 SLP179 60030 T03060244 10311 20272 58003

TAF INFORMATION

TAF KTMB 011720Z 0118/0218 14006KT P6SM VCTS SCT025CB BKN060 BKN250 TEMPO 0118/0120 4SM TSRA BKN030CB BKN050 BKN200 FM020100 VRB02KT P6SM FEW025 SCT250

TAF KOPF 011720Z 0118/0218 13007KT P6SM VCTS SCT030CB BKN060 BKN250 TEMPO 0118/0120 4SM TSRA BKN030CB BKN050 BKN200 FM012300 15008KT P6SM VCSH SCT035 BKN050 FM020100 VRB03KT P6SM FEW025 SCT250

TAF KFLL 011720Z 0118/0218 15008KT P6SM VCTS SCT025CB BKN060 BKN250 TEMPO 0118/0120 4SM TSRA BKN030CB BKN050 BKN200 FM012200 14008KT P6SM VCSH SCT035 BKN050 FM020000 VRB03KT P6SM FEW025 SCT250

SO MANY GRADUATES, SO MANY DREAMS MADE REALITY

ADF Airways has graduated many students over its 30 plus years in the business. The above gallery shows just a sample of our most recent graduates. Click here to see our gallery of graduates page.

Our Programs and Services

ADF Airways offers a variety of programs to suit your needs. Click on any of the links below for more information

Private Pilot Course

Foreign License Conversion

Instrument Rating Course

Jet Transition Program

Commercial Pilot Course

CFI Course

FAA Testing Center

PARTNERS